| time (UTC) | temp C | wind direction | speed KPH | gust KPH | rain 1hr cm | rain 24hr cm | rain mn cm | humidity % | barometer mb |
| 20260510162016 | 12 | 0 | 1.6 | 11.3 | 0.00 | 0.00 | 0.00 | 92 | 1015.7 |
| 20260510161016 | 13 | 338 | 3.2 | 16.1 | 0.00 | 0.00 | 0.00 | 92 | 1015.8 |
| 20260510160016 | 13 | 0 | 3.2 | 12.9 | 0.00 | 0.00 | 0.00 | 92 | 1016.0 |
| 20260510155036 | 13 | 0 | 1.6 | 9.7 | 0.00 | 0.00 | 0.00 | 92 | 1016.0 |
| 20260510154016 | 13 | 0 | 1.6 | 11.3 | 0.00 | 0.00 | 0.00 | 92 | 1016.1 |
| 20260510153016 | 13 | 338 | 3.2 | 14.5 | 0.00 | 0.00 | 0.00 | 92 | 1016.1 |
| 20260510152017 | 13 | 0 | 1.6 | 12.9 | 0.00 | 0.00 | 0.00 | 93 | 1016.3 |
| 20260510151016 | 13 | 0 | 1.6 | 17.7 | 0.00 | 0.00 | 0.00 | 93 | 1016.4 |
| 20260510150016 | 13 | 0 | 1.6 | 14.5 | 0.00 | 0.00 | 0.00 | 93 | 1016.6 |
| 20260510145056 | 12 | 0 | 1.6 | 11.3 | 0.00 | 0.00 | 0.00 | 93 | 1016.6 |
| 20260510144016 | 12 | 0 | 1.6 | 11.3 | 0.00 | 0.00 | 0.00 | 93 | 1016.7 |
| 20260510143016 | 12 | 338 | 3.2 | 14.5 | 0.00 | 0.00 | 0.00 | 93 | 1016.8 |
| 20260510142017 | 12 | 0 | 1.6 | 11.3 | 0.00 | 0.00 | 0.00 | 93 | 1016.9 |
| 20260510141016 | 12 | 338 | 1.6 | 9.7 | 0.00 | 0.00 | 0.00 | 93 | 1016.9 |
| 20260510140016 | 12 | 0 | 1.6 | 9.7 | 0.00 | 0.00 | 0.00 | 93 | 1017.0 |
| 20260510135016 | 12 | 0 | 1.6 | 9.7 | 0.00 | 0.00 | 0.00 | 93 | 1017.0 |
| 20260510134016 | 12 | 338 | 1.6 | 9.7 | 0.00 | 0.00 | 0.00 | 93 | 1017.0 |
| 20260510133056 | 12 | 0 | 1.6 | 12.9 | 0.00 | 0.00 | 0.00 | 93 | 1017.1 |
| 20260510132016 | 12 | 338 | 4.8 | 12.9 | 0.00 | 0.00 | 0.00 | 93 | 1017.1 |
| 20260510131036 | 12 | 0 | 1.6 | 9.7 | 0.00 | 0.00 | 0.00 | 93 | 1017.2 |
| 20260510130016 | 12 | 0 | 1.6 | 14.5 | 0.00 | 0.00 | 0.00 | 93 | 1017.3 |
| 20260510125016 | 12 | 0 | 1.6 | 14.5 | 0.00 | 0.00 | 0.00 | 93 | 1017.4 |
| 20260510124019 | 12 | 0 | 1.6 | 12.9 | 0.00 | 0.00 | 0.00 | 93 | 1017.5 |
| 20260510123016 | 11 | 338 | 3.2 | 11.3 | 0.00 | 0.00 | 0.00 | 94 | 1017.4 |
| 20260510122016 | 12 | 0 | 4.8 | 19.3 | 0.00 | 0.00 | 0.00 | 94 | 1017.5 |
| 20260510121036 | 12 | 338 | 1.6 | 9.7 | 0.00 | 0.00 | 0.00 | 94 | 1017.6 |
| 20260510120036 | 12 | 338 | 3.2 | 9.7 | 0.00 | 0.00 | 0.00 | 93 | 1017.8 |
| 20260510115036 | 12 | 0 | 1.6 | 9.7 | 0.00 | 0.00 | 0.00 | 93 | 1017.9 |
| 20260510114036 | 11 | 0 | 1.6 | 16.1 | 0.00 | 0.00 | 0.00 | 93 | 1017.9 |
| 20260510113016 | 11 | 338 | 1.6 | 12.9 | 0.00 | 0.00 | 0.00 | 93 | 1018.1 |
| 20260510112016 | 11 | 0 | 3.2 | 14.5 | 0.00 | 0.00 | 0.00 | 93 | 1018.1 |
| 20260510111016 | 11 | 0 | 1.6 | 6.4 | 0.00 | 0.00 | 0.00 | 93 | 1018.3 |
| 20260510110016 | 11 | 338 | 1.6 | 12.9 | 0.00 | 0.00 | 0.00 | 93 | 1018.4 |
| 20260510105036 | 11 | 0.0 | 8.0 | 0.00 | 0.00 | 0.00 | 93 | 1018.4 | |
| 20260510104015 | 11 | 0 | 1.6 | 11.3 | 0.00 | 0.00 | 0.00 | 93 | 1018.3 |
| 20260510103015 | 11 | 338 | 1.6 | 9.7 | 0.00 | 0.00 | 0.00 | 93 | 1018.2 |
| 20260510102015 | 11 | 338 | 1.6 | 14.5 | 0.00 | 0.00 | 0.00 | 93 | 1018.3 |
| 20260510101035 | 11 | 0 | 1.6 | 11.3 | 0.00 | 0.00 | 0.00 | 93 | 1018.3 |
| 20260510100016 | 11 | 0 | 3.2 | 14.5 | 0.00 | 0.00 | 0.00 | 93 | 1018.4 |
| 20260510095015 | 11 | 0 | 1.6 | 11.3 | 0.00 | 0.00 | 0.00 | 93 | 1018.5 |
| 20260510094015 | 11 | 338 | 1.6 | 8.0 | 0.00 | 0.00 | 0.00 | 93 | 1018.5 |
| 20260510093016 | 11 | 338 | 1.6 | 9.7 | 0.00 | 0.00 | 0.00 | 93 | 1018.5 |
| 20260510092016 | 11 | 338 | 1.6 | 11.3 | 0.00 | 0.00 | 0.00 | 93 | 1018.5 |
| 20260510091015 | 11 | 0 | 1.6 | 12.9 | 0.00 | 0.00 | 0.00 | 93 | 1018.6 |
| 20260510090016 | 11 | 0 | 1.6 | 9.7 | 0.00 | 0.00 | 0.00 | 93 | 1018.8 |
| 20260510085016 | 10 | 338 | 1.6 | 11.3 | 0.00 | 0.00 | 0.00 | 93 | 1018.8 |
| 20260510084015 | 10 | 0 | 1.6 | 16.1 | 0.00 | 0.00 | 0.00 | 93 | 1018.8 |
| 20260510083015 | 10 | 0 | 1.6 | 9.7 | 0.00 | 0.00 | 0.00 | 93 | 1018.8 |
| 20260510082015 | 10 | 338 | 1.6 | 11.3 | 0.00 | 0.00 | 0.00 | 93 | 1018.9 |
| 20260510081035 | 10 | 0 | 1.6 | 14.5 | 0.00 | 0.00 | 0.00 | 93 | 1018.9 |
| 20260510080015 | 10 | 338 | 3.2 | 16.1 | 0.00 | 0.00 | 0.00 | 93 | 1018.9 |
| 20260510075015 | 10 | 338 | 3.2 | 17.7 | 0.00 | 0.00 | 0.00 | 94 | 1018.9 |
| 20260510074037 | 10 | 0 | 1.6 | 9.7 | 0.00 | 0.00 | 0.00 | 94 | 1019.0 |
| 20260510073017 | 10 | 338 | 1.6 | 16.1 | 0.00 | 0.00 | 0.00 | 94 | 1018.9 |
| 20260510072017 | 9 | 0 | 3.2 | 11.3 | 0.00 | 0.00 | 0.00 | 93 | 1018.9 |
| 20260510071037 | 9 | 338 | 1.6 | 16.1 | 0.00 | 0.00 | 0.00 | 93 | 1018.9 |
| 20260510070037 | 9 | 0 | 1.6 | 9.7 | 0.00 | 0.00 | 0.00 | 93 | 1018.9 |
| 20260510065016 | 9 | 338 | 1.6 | 6.4 | 0.00 | 0.00 | 0.00 | 93 | 1018.8 |
| 20260510064017 | 9 | 338 | 1.6 | 14.5 | 0.00 | 0.00 | 0.00 | 93 | 1018.7 |
| 20260510063037 | 9 | 338 | 1.6 | 9.7 | 0.00 | 0.00 | 0.00 | 93 | 1018.7 |
| 20260510062017 | 9 | 0 | 3.2 | 17.7 | 0.00 | 0.00 | 0.00 | 93 | 1018.6 |
| 20260510061017 | 9 | 0 | 1.6 | 12.9 | 0.00 | 0.00 | 0.00 | 93 | 1018.7 |
| 20260510060017 | 9 | 338 | 1.6 | 9.7 | 0.00 | 0.00 | 0.00 | 93 | 1018.7 |
| 20260510055017 | 9 | 338 | 1.6 | 9.7 | 0.00 | 0.00 | 0.00 | 93 | 1018.7 |
| 20260510054015 | 9 | 0 | 1.6 | 9.7 | 0.00 | 0.00 | 0.00 | 93 | 1018.7 |
| 20260510053037 | 9 | 0.0 | 8.0 | 0.00 | 0.00 | 0.00 | 93 | 1018.7 | |
| 20260510052017 | 8 | 0.0 | 8.0 | 0.00 | 0.00 | 0.00 | 93 | 1018.7 | |
| 20260510051017 | 8 | 0.0 | 4.8 | 0.00 | 0.00 | 0.00 | 93 | 1018.8 | |
| 20260510050017 | 8 | 0.0 | 6.4 | 0.00 | 0.00 | 0.00 | 93 | 1018.7 | |
| 20260510045017 | 8 | 0.0 | 1.6 | 0.00 | 0.00 | 0.00 | 93 | 1018.8 | |
| 20260510044037 | 8 | 0.0 | 4.8 | 0.00 | 0.00 | 0.00 | 93 | 1018.9 | |
| 20260510043017 | 8 | 0.0 | 4.8 | 0.00 | 0.00 | 0.00 | 93 | 1018.8 | |
| 20260510042037 | 8 | 0.0 | 3.2 | 0.00 | 0.00 | 0.00 | 93 | 1018.7 | |
| 20260510041037 | 9 | 338 | 1.6 | 9.7 | 0.00 | 0.00 | 0.00 | 93 | 1018.8 |
| 20260510040017 | 9 | 0 | 1.6 | 11.3 | 0.00 | 0.00 | 0.00 | 93 | 1018.8 |
| 20260510035017 | 8 | 0.0 | 6.4 | 0.00 | 0.00 | 0.00 | 93 | 1018.6 | |
| 20260510034017 | 9 | 0.0 | 6.4 | 0.00 | 0.00 | 0.00 | 93 | 1018.7 | |
| 20260510033057 | 9 | 0.0 | 8.0 | 0.00 | 0.00 | 0.00 | 93 | 1018.8 | |
| 20260510032017 | 9 | 338 | 1.6 | 8.0 | 0.00 | 0.00 | 0.00 | 93 | 1018.9 |
| 20260510031017 | 9 | 0 | 1.6 | 4.8 | 0.00 | 0.00 | 0.00 | 93 | 1019.0 |
| 20260510030017 | 9 | 0 | 1.6 | 8.0 | 0.00 | 0.00 | 0.00 | 93 | 1019.1 |
| 20260510025017 | 9 | 0 | 1.6 | 8.0 | 0.00 | 0.00 | 0.00 | 93 | 1019.2 |
| 20260510024017 | 9 | 0 | 1.6 | 9.7 | 0.00 | 0.00 | 0.00 | 93 | 1019.2 |
| 20260510023017 | 9 | 0 | 1.6 | 6.4 | 0.00 | 0.00 | 0.00 | 93 | 1019.2 |
| 20260510022017 | 9 | 338 | 1.6 | 8.0 | 0.00 | 0.00 | 0.00 | 93 | 1019.2 |
| 20260510021017 | 9 | 0 | 1.6 | 12.9 | 0.00 | 0.00 | 0.00 | 93 | 1019.3 |
| 20260510020016 | 9 | 338 | 1.6 | 6.4 | 0.00 | 0.00 | 0.00 | 93 | 1019.2 |
| 20260510015017 | 9 | 338 | 1.6 | 6.4 | 0.00 | 0.00 | 0.00 | 93 | 1019.3 |
| 20260510014016 | 9 | 338 | 1.6 | 9.7 | 0.00 | 0.00 | 0.00 | 93 | 1019.3 |
| 20260510013016 | 9 | 0 | 1.6 | 9.7 | 0.00 | 0.00 | 0.00 | 93 | 1019.4 |
| 20260510012016 | 9 | 0 | 1.6 | 9.7 | 0.00 | 0.00 | 0.00 | 93 | 1019.3 |
| 20260510011016 | 9 | 338 | 1.6 | 11.3 | 0.00 | 0.00 | 0.00 | 92 | 1019.2 |
| 20260510010016 | 9 | 0 | 1.6 | 8.0 | 0.00 | 0.00 | 0.00 | 92 | 1019.2 |
| 20260510005016 | 9 | 338 | 1.6 | 6.4 | 0.00 | 0.00 | 0.00 | 92 | 1019.2 |
| 20260510004036 | 9 | 338 | 1.6 | 8.0 | 0.00 | 0.00 | 0.00 | 92 | 1019.0 |
| 20260510003036 | 9 | 0.0 | 8.0 | 0.00 | 0.00 | 0.00 | 92 | 1019.2 | |
| 20260510002017 | 9 | 0.0 | 6.4 | 0.00 | 0.00 | 0.00 | 92 | 1019.2 | |
| 20260510001017 | 9 | 0.0 | 3.2 | 0.00 | 0.00 | 0.00 | 92 | 1019.2 | |
| 20260510000016 | 9 | 0.0 | 6.4 | 0.00 | 0.00 | 0.00 | 92 | 1019.3 | |
| 20260509235016 | 10 | 0.0 | 9.7 | 0.00 | 0.00 | 0.00 | 92 | 1019.3 | |
| 20260509234016 | 10 | 0.0 | 6.4 | 0.00 | 0.00 | 0.00 | 92 | 1019.4 | |
| 20260509233016 | 10 | 0 | 1.6 | 8.0 | 0.00 | 0.00 | 0.00 | 92 | 1019.3 |
| 20260509232016 | 10 | 0.0 | 4.8 | 0.00 | 0.00 | 0.00 | 92 | 1019.4 | |
| 20260509231036 | 10 | 0 | 1.6 | 14.5 | 0.00 | 0.00 | 0.00 | 92 | 1019.1 |
| 20260509230036 | 10 | 338 | 1.6 | 6.4 | 0.00 | 0.00 | 0.00 | 92 | 1019.2 |
| 20260509225017 | 10 | 0.0 | 4.8 | 0.00 | 0.00 | 0.00 | 92 | 1019.4 | |
| 20260509224017 | 10 | 0.0 | 3.2 | 0.00 | 0.00 | 0.00 | 92 | 1019.4 | |
| 20260509223037 | 11 | 0.0 | 1.6 | 0.00 | 0.00 | 0.00 | 91 | 1019.3 | |
| 20260509222017 | 11 | 0.0 | 3.2 | 0.00 | 0.00 | 0.00 | 91 | 1019.4 | |
| 20260509221037 | 11 | 0.0 | 6.4 | 0.00 | 0.00 | 0.00 | 91 | 1019.1 | |
| 20260509220017 | 11 | 338 | 1.6 | 11.3 | 0.00 | 0.00 | 0.00 | 91 | 1018.8 |
| 20260509215017 | 11 | 0.0 | 6.4 | 0.00 | 0.00 | 0.00 | 91 | 1018.7 | |
| 20260509214017 | 11 | 0.0 | 1.6 | 0.00 | 0.00 | 0.00 | 91 | 1018.6 | |
| 20260509213017 | 12 | 0.0 | 0.0 | 0.00 | 0.00 | 0.00 | 91 | 1018.6 | |
| 20260509212037 | 12 | 0.0 | 1.6 | 0.00 | 0.00 | 0.00 | 91 | 1018.6 | |
| 20260509211016 | 12 | 0.0 | 3.2 | 0.00 | 0.00 | 0.00 | 91 | 1018.4 | |
| 20260509210016 | 12 | 0.0 | 0.0 | 0.00 | 0.00 | 0.00 | 91 | 1018.3 | |
| 20260509205016 | 12 | 0.0 | 0.0 | 0.00 | 0.00 | 0.00 | 91 | 1018.0 | |
| 20260509204016 | 13 | 0.0 | 1.6 | 0.00 | 0.00 | 0.00 | 91 | 1017.9 | |
| 20260509203016 | 13 | 0.0 | 0.0 | 0.00 | 0.00 | 0.00 | 91 | 1018.0 | |
| 20260509202017 | 13 | 0.0 | 0.0 | 0.00 | 0.00 | 0.00 | 91 | 1017.8 | |
| 20260509201017 | 13 | 0.0 | 0.0 | 0.00 | 0.00 | 0.00 | 91 | 1017.6 | |
| 20260509200037 | 13 | 0.0 | 0.0 | 0.00 | 0.00 | 0.00 | 91 | 1017.6 | |
| 20260509195036 | 14 | 0.0 | 0.0 | 0.00 | 0.00 | 0.00 | 91 | 1017.5 | |
| 20260509194017 | 15 | 0.0 | 0.0 | 0.00 | 0.00 | 0.00 | 91 | 1017.4 | |
| 20260509193036 | 15 | 0.0 | 1.6 | 0.00 | 0.00 | 0.00 | 91 | 1017.4 | |
| 20260509192017 | 16 | 0.0 | 0.0 | 0.00 | 0.00 | 0.00 | 91 | 1017.4 | |
| 20260509191036 | 16 | 0.0 | 1.6 | 0.00 | 0.00 | 0.00 | 91 | 1017.2 | |
| 20260509190017 | 17 | 0.0 | 6.4 | 0.00 | 0.00 | 0.00 | 91 | 1017.2 | |
| 20260509185016 | 17 | 0.0 | 6.4 | 0.00 | 0.00 | 0.00 | 91 | 1017.2 | |
| 20260509184016 | 18 | 338 | 1.6 | 12.9 | 0.00 | 0.00 | 0.00 | 91 | 1017.0 |
| 20260509183016 | 18 | 338 | 1.6 | 12.9 | 0.00 | 0.00 | 0.00 | 91 | 1016.9 |
| 20260509182016 | 19 | 338 | 1.6 | 8.0 | 0.00 | 0.00 | 0.00 | 91 | 1016.8 |
| 20260509181036 | 19 | 0 | 1.6 | 6.4 | 0.00 | 0.00 | 0.00 | 90 | 1016.6 |
| 20260509180019 | 19 | 0 | 1.6 | 9.7 | 0.00 | 0.00 | 0.00 | 90 | 1016.5 |
| 20260509175016 | 19 | 0.0 | 3.2 | 0.00 | 0.00 | 0.00 | 90 | 1016.6 | |
| 20260509174016 | 20 | 0.0 | 3.2 | 0.00 | 0.00 | 0.00 | 90 | 1016.6 | |
| 20260509173016 | 20 | 0.0 | 1.6 | 0.00 | 0.00 | 0.00 | 90 | 1016.5 | |
| 20260509172016 | 21 | 0.0 | 0.0 | 0.00 | 0.00 | 0.00 | 90 | 1016.6 | |
| 20260509171016 | 21 | 0.0 | 1.6 | 0.00 | 0.00 | 0.00 | 90 | 1016.6 | |
| 20260509170016 | 22 | 0.0 | 1.6 | 0.00 | 0.00 | 0.00 | 90 | 1016.7 | |
| 20260509165016 | 22 | 0.0 | 6.4 | 0.00 | 0.00 | 0.00 | 90 | 1016.8 | |
| 20260509164016 | 23 | 0.0 | 3.2 | 0.00 | 0.00 | 0.00 | 90 | 1016.8 | |
| 20260509163016 | 22 | 0.0 | 1.6 | 0.00 | 0.00 | 0.00 | 90 | 1016.8 |